Theta_e
350 353 355 357 357 357 356 356 355 356 355 354 354 354 353 353 353 352 352 353 352 352 353 352 352 352 352 351 352 352 352 352 352 351 351 349 349 349 349 348 348 348 348 348 349 350 350 350 350 349 349 348 349 348 349 347 347 346 346 345 345 345 344 345 345 346 346 345 345 345 342 341 342 343 342 340 340 340 340 340 341 338 338 338 339
349 354 355 356 356 357 357 357 355 354 354 354 353 353 353 353 353 353 352 353 352 352 352 351 351 351 351 351 351 352 352 352 352 352 351 350 350 349 349 348 349 348 348 348 347 347 347 347 348 348 348 348 348 348 347 347 346 345 345 345 344 344 344 345 345 345 345 344 344 342 343 343 343 343 342 342 342 341 340 340 340 337 337 339 339
353 355 355 355 357 357 356 356 356 353 354 355 354 354 353 354 352 354 353 353 353 352 352 352 352 351 351 351 351 351 352 352 351 351 351 351 350 350 349 349 348 347 347 347 348 347 347 347 348 347 347 347 347 347 346 346 345 345 345 344 344 344 344 344 343 343 343 342 343 344 343 341 340 341 342 342 341 340 339 337 336 336 336 339 339
351 354 355 356 357 356 355 355 355 355 354 354 355 354 354 354 354 354 353 353 352 353 353 353 353 352 352 351 352 352 351 351 351 351 350 350 350 350 349 348 348 348 347 347 348 348 347 348 347 347 346 346 346 346 346 346 345 344 344 344 344 343 344 344 344 344 344 343 343 341 342 339 340 341 340 340 339 340 340 339 338 337 336 337 338
351 353 354 354 354 355 355 355 355 354 354 354 354 354 355 354 354 354 353 353 353 353 353 353 353 353 352 352 352 351 350 350 350 349 349 349 349 349 350 350 350 350 350 348 348 347 345 346 347 346 346 346 346 346 345 344 344 344 344 344 344 343 343 343 343 343 342 342 341 339 335 336 337 341 341 340 341 341 340 340 340 339 337 336 338
351 352 352 353 353 354 355 355 354 354 355 354 354 354 354 354 354 354 354 354 353 353 353 353 353 352 352 351 350 350 350 350 350 349 349 349 350 350 351 350 349 349 347 347 347 346 346 345 345 345 346 346 346 345 345 345 344 343 343 344 343 343 343 342 341 342 342 341 339 335 334 336 338 337 340 340 338 338 338 338 338 338 338 338 338
351 351 352 352 352 354 354 354 355 354 354 354 354 354 354 354 354 354 354 353 353 353 353 353 353 353 352 351 351 351 351 351 351 350 350 350 349 349 349 349 348 347 346 346 347 348 347 347 347 347 346 346 345 346 346 345 344 342 343 344 344 343 343 342 342 341 340 336 332 333 333 333 337 338 339 340 341 338 337 339 339 338 338 338 338
352 351 351 351 352 354 354 354 354 354 354 354 354 354 354 354 354 354 353 353 353 353 353 353 353 352 352 352 352 351 351 350 350 351 351 350 349 349 348 347 347 347 348 348 348 349 349 347 347 347 347 347 347 347 346 346 344 342 342 344 345 345 343 342 341 340 339 334 332 333 333 335 337 339 342 339 338 339 339 338 337 337 338 337 338
349 350 351 351 351 354 354 354 354 354 354 354 354 354 354 354 353 353 353 353 353 352 352 352 352 352 352 352 352 351 351 351 351 351 351 349 349 349 351 351 350 349 348 348 348 349 348 347 346 346 347 348 347 346 347 346 345 345 344 344 343 344 343 342 340 340 338 335 333 333 334 335 336 338 341 342 339 339 339 338 338 339 338 336 336
349 350 350 350 351 354 353 353 354 355 354 354 354 354 354 353 353 353 353 352 352 352 352 352 352 352 352 352 351 351 350 350 350 350 350 350 350 351 351 351 350 349 349 348 347 347 347 347 347 346 347 346 346 345 345 345 344 344 343 343 342 342 341 341 342 342 336 334 333 334 340 340 337 336 338 338 338 338 335 336 337 336 337 337 337
350 350 350 350 352 352 352 353 354 354 354 354 354 354 354 353 353 353 353 352 351 352 352 351 351 351 351 351 351 350 350 350 350 350 349 350 350 351 351 350 349 349 348 347 346 346 347 348 348 348 347 345 345 344 344 345 344 343 342 341 341 341 342 342 343 337 335 333 333 336 341 342 337 337 339 339 338 337 338 336 337 337 337 337 337
350 351 351 351 352 351 352 353 354 354 353 354 354 354 354 353 353 353 352 351 351 352 351 351 351 351 351 351 351 350 350 349 348 348 349 349 350 351 351 349 348 348 347 347 346 346 346 347 347 347 347 346 344 344 344 343 343 342 341 340 341 343 342 342 335 335 334 333 336 337 336 337 337 338 340 339 339 338 337 338 337 336 337 338 337
349 350 350 348 347 350 352 352 353 354 353 353 353 353 353 352 353 352 352 351 351 351 350 351 351 351 350 350 350 350 349 348 348 348 348 349 350 351 351 350 348 348 348 348 347 347 346 346 346 345 344 344 344 343 343 343 342 341 341 342 343 341 341 342 333 334 333 333 336 333 333 335 338 340 339 339 339 338 338 337 336 336 337 338 336
348 349 348 347 347 352 350 351 351 353 354 353 353 352 352 352 352 352 352 351 351 351 350 351 350 350 350 349 349 349 348 348 348 348 348 348 349 350 350 349 349 349 349 348 347 346 345 344 344 343 343 342 342 342 342 342 342 342 343 344 344 341 341 339 336 334 335 335 335 332 333 338 338 340 339 339 338 338 338 337 336 338 337 337 336
347 346 344 344 344 347 352 350 350 350 353 352 352 353 352 352 352 351 351 351 351 350 350 350 350 350 349 349 349 348 348 348 348 347 347 347 348 349 349 349 349 348 348 347 346 345 344 343 343 343 342 341 340 341 342 342 343 343 343 344 344 340 339 335 335 334 334 335 337 335 333 335 341 341 339 339 338 337 336 336 336 336 336 335 335
346 344 344 344 345 347 348 351 349 346 351 352 352 353 352 351 351 351 351 351 350 350 350 350 350 350 350 349 349 349 348 348 347 347 347 347 347 348 348 348 348 348 347 346 345 344 343 343 342 342 341 340 341 342 343 343 343 343 343 344 345 340 339 337 334 333 334 334 335 336 333 338 342 340 339 339 337 337 336 336 336 335 335 336 336
342 343 343 344 346 346 347 349 350 351 352 352 352 352 351 351 351 351 351 350 350 350 350 350 350 349 349 349 349 349 348 348 347 347 347 346 346 346 346 346 346 346 346 345 344 343 343 342 342 342 341 340 341 341 342 342 342 343 344 344 344 343 340 337 332 332 333 335 335 333 334 337 341 341 340 339 338 337 336 335 335 336 335 336 335
340 342 343 344 345 346 347 348 349 350 349 351 352 351 351 351 350 350 350 350 350 350 350 349 349 349 349 349 349 349 348 347 347 347 347 346 347 345 345 345 344 345 345 345 344 343 342 342 341 341 340 340 341 341 341 342 342 342 343 343 343 343 341 338 332 333 334 337 333 336 336 339 342 341 339 339 338 337 336 335 335 334 334 335 335
337 340 342 343 344 345 346 346 347 348 349 348 348 349 351 350 350 350 350 349 350 350 350 349 349 349 349 349 349 348 348 347 347 347 346 346 345 346 345 345 345 345 345 344 343 343 342 342 341 341 340 341 341 341 341 341 342 343 342 341 342 343 341 337 333 332 336 335 334 334 333 339 341 340 339 339 337 337 336 335 335 335 334 335 334
338 339 340 341 344 345 346 346 346 347 347 347 347 348 350 350 349 350 349 349 350 349 349 349 349 349 349 349 349 348 347 346 347 346 346 345 345 344 345 344 345 345 344 344 344 343 342 342 342 341 340 340 341 340 339 338 340 342 340 340 342 343 338 332 333 333 334 334 336 333 335 340 341 339 339 339 338 337 336 335 335 334 334 334 334
339 339 337 339 343 344 345 345 347 347 347 347 346 346 348 350 349 350 350 350 349 349 349 349 349 349 348 348 346 342 342 342 343 342 345 344 345 345 344 345 345 344 344 344 344 343 342 342 342 341 341 341 340 339 338 337 339 338 337 338 340 335 332 332 333 336 334 337 338 331 337 340 339 339 339 338 338 336 335 334 334 333 333 333 333
336 337 335 339 343 344 344 345 346 346 346 346 346 346 347 348 346 346 347 347 348 349 347 345 347 343 347 344 341 344 339 339 341 346 343 344 343 344 344 345 345 345 344 344 344 343 343 343 343 343 341 341 338 328 328 334 336 336 336 336 330 331 332 332 333 333 335 335 335 334 339 339 339 339 338 337 337 336 335 334 334 334 333 334 334
334 336 337 340 342 343 344 345 345 345 345 345 346 346 345 345 345 345 346 348 348 347 343 345 340 341 342 341 341 339 339 341 342 343 344 346 343 344 344 344 344 344 344 344 344 343 343 343 343 342 342 336 328 325 325 324 327 334 334 328 328 330 331 332 332 333 333 335 333 336 340 339 339 339 337 337 336 336 335 335 334 333 334 334 334
333 335 337 339 340 341 342 343 344 345 345 345 346 345 346 346 345 344 343 343 343 343 340 340 340 340 340 339 338 340 338 338 344 343 343 343 341 344 343 344 344 343 343 344 343 343 343 342 343 343 338 330 326 327 327 327 326 325 325 326 328 330 330 331 332 332 332 336 331 337 340 340 340 339 337 337 336 336 335 334 333 333 335 334 334
331 332 337 337 339 340 341 343 345 345 345 345 345 344 345 345 344 343 341 340 341 340 339 339 339 338 338 337 338 338 336 334 334 338 337 337 335 336 338 337 336 337 341 331 331 333 334 333 332 334 330 330 329 327 327 329 327 325 326 326 328 329 330 332 332 332 332 335 334 338 340 340 340 339 338 337 336 336 335 334 333 333 333 333 335
328 330 334 335 337 339 341 343 344 344 344 344 344 344 345 343 342 343 342 339 340 341 341 340 337 336 336 337 337 334 333 331 333 335 337 335 335 335 333 332 333 335 337 334 333 332 329 330 329 330 331 330 329 329 328 330 326 324 324 325 326 330 330 331 332 332 332 333 336 339 342 340 341 338 338 337 336 336 335 334 333 333 332 332 335
328 327 329 332 335 338 341 343 343 343 343 344 344 344 343 343 343 342 341 340 340 340 339 338 336 335 336 337 334 332 330 329 331 334 335 335 335 335 334 333 333 334 337 335 335 333 331 330 329 330 329 330 330 330 327 327 325 325 325 325 325 329 330 330 331 332 332 333 335 339 341 341 342 338 337 336 336 336 335 334 333 333 332 331 331
326 326 329 331 333 338 342 342 342 342 342 343 343 342 342 342 343 343 341 342 339 338 338 337 335 334 335 336 336 331 330 329 330 332 333 334 335 335 333 333 333 334 337 334 334 332 332 332 331 329 329 330 330 330 327 326 324 324 326 326 325 327 330 330 331 332 332 333 334 339 341 342 341 340 337 336 335 335 335 333 333 333 332 331 330
325 326 328 332 336 340 341 341 341 341 341 342 341 341 341 341 340 341 339 343 337 337 336 335 334 334 334 335 336 331 330 330 330 330 330 333 334 335 334 333 331 332 336 335 333 330 331 331 330 330 328 328 328 328 329 327 326 324 324 325 325 325 328 330 331 331 332 333 334 338 341 341 340 341 338 336 336 335 335 333 333 332 332 331 331
326 327 330 333 337 342 340 340 339 340 340 341 340 339 339 339 340 341 340 341 335 334 334 334 333 333 333 334 334 331 330 330 330 329 330 329 331 332 333 332 331 330 333 333 331 330 329 329 330 330 330 329 329 329 329 328 327 325 323 325 325 326 328 329 330 331 332 333 335 337 341 340 339 339 340 337 337 335 334 334 334 332 332 332 331
328 328 329 332 335 340 339 339 339 341 339 340 339 338 339 339 340 341 340 338 335 335 334 333 332 332 333 333 332 333 330 328 329 329 328 329 329 330 330 331 331 329 330 330 331 330 329 329 330 330 330 329 329 329 328 328 324 326 325 323 324 327 329 330 331 332 333 333 334 335 338 341 339 340 340 338 339 336 335 334 333 334 333 333 332
327 329 331 332 333 338 340 339 338 339 338 338 339 337 337 338 339 339 339 337 335 333 332 332 333 331 333 331 330 331 331 329 328 328 328 329 329 329 328 329 329 329 330 329 330 329 330 330 331 331 330 330 329 327 327 325 325 327 327 325 325 328 328 329 330 331 333 333 333 334 335 337 340 340 340 338 338 340 336 335 334 334 333 332 332
324 328 331 332 332 335 337 338 339 338 336 336 337 336 336 337 337 337 337 338 335 333 331 331 331 330 329 328 329 331 330 328 327 328 329 328 328 327 328 330 330 327 328 330 330 327 328 329 329 329 329 329 328 326 328 327 327 327 328 327 326 327 327 328 329 331 332 333 332 334 335 336 336 338 337 339 338 338 339 337 336 334 333 332 332
326 328 329 330 333 333 330 335 337 337 336 335 334 334 334 335 335 333 337 336 332 331 332 329 331 330 331 329 330 331 330 330 329 328 328 327 327 326 326 327 328 328 327 327 327 327 328 329 329 325 332 328 326 325 327 327 328 328 328 328 327 326 327 328 328 330 331 332 332 333 334 334 334 335 336 338 339 337 337 338 337 335 335 334 332
326 327 329 331 331 332 330 332 338 336 337 335 336 334 334 335 332 333 333 333 332 329 327 327 330 331 332 329 330 331 330 329 329 328 327 327 327 326 325 327 328 328 326 327 326 326 328 328 327 325 325 325 325 327 327 327 327 328 327 328 328 327 328 327 327 329 329 330 331 332 333 334 334 334 335 335 336 337 336 337 338 340 336 335 334
324 324 328 328 329 333 336 334 337 336 336 335 334 333 333 331 333 335 331 330 331 331 330 329 329 330 331 329 330 331 330 330 329 327 327 326 327 326 327 327 328 327 326 326 326 326 327 327 327 325 325 325 326 325 327 326 327 327 328 328 328 329 327 327 327 328 328 329 330 331 332 332 333 333 337 335 336 335 336 337 337 337 339 337 335
326 326 327 328 328 331 337 334 335 334 333 333 332 330 329 331 333 332 331 330 329 329 330 329 329 329 329 329 329 331 330 329 328 328 326 327 327 326 327 328 328 326 324 324 325 326 327 327 326 327 325 326 326 326 326 327 327 327 327 328 328 328 328 328 327 327 327 327 327 329 330 331 333 336 335 334 334 335 335 335 336 336 336 338 339
326 327 329 330 330 331 334 334 332 331 330 330 330 330 330 330 330 331 332 329 328 327 328 328 328 329 330 329 329 329 329 328 328 327 326 327 327 326 326 328 327 325 324 324 324 325 326 325 324 325 326 325 325 326 325 326 327 327 326 327 327 327 327 328 329 329 327 327 327 329 329 330 332 332 334 334 334 334 334 334 336 337 337 335 334
322 322 323 326 328 329 331 333 330 327 326 326 328 328 328 327 327 327 327 327 326 325 325 324 325 326 327 329 330 329 329 328 328 327 325 328 326 325 325 326 326 325 324 323 323 325 324 323 325 325 326 326 325 325 326 326 326 327 326 326 326 326 326 328 328 328 328 329 329 329 328 328 330 331 331 333 334 334 334 334 334 334 335 335 336
320 322 323 324 325 326 327 326 325 324 325 325 325 325 326 325 324 322 322 322 322 325 321 321 322 323 327 328 330 329 329 328 327 327 326 327 325 324 325 325 325 324 323 322 322 323 324 324 324 324 323 324 325 325 325 324 322 321 322 324 327 327 327 326 326 327 327 327 328 328 329 328 328 328 330 332 332 333 333 333 334 334 334 334 335
320 321 322 323 325 326 326 324 322 323 325 324 322 322 319 318 317 317 317 316 319 319 319 318 321 323 325 326 327 328 329 328 327 326 325 329 325 324 324 325 324 323 323 322 323 323 323 324 323 323 322 321 323 324 323 323 322 320 319 319 322 327 329 326 326 326 326 325 326 327 327 328 328 327 327 329 331 331 333 333 334 334 334 334 334
319 320 321 323 324 324 326 323 321 322 324 324 324 320 317 318 318 317 315 315 319 318 317 315 317 320 321 322 324 324 325 327 327 325 326 326 323 323 323 325 326 323 323 323 323 326 324 322 322 322 321 320 320 322 322 321 318 318 316 314 318 321 324 325 326 326 326 325 325 327 327 327 327 328 328 329 329 330 331 332 332 333 333 333 333
319 320 321 322 322 323 323 321 320 321 321 323 322 319 316 318 316 314 315 311 312 315 315 317 318 315 314 316 318 318 322 325 326 326 325 326 323 322 321 323 324 325 322 322 324 323 321 322 322 321 319 321 321 322 320 318 315 313 314 313 310 312 316 317 322 325 326 325 323 327 327 329 329 330 329 329 329 329 331 332 332 331 331 331 332
319 318 319 321 321 322 320 319 319 318 320 322 321 317 317 315 314 313 313 312 315 317 315 315 314 314 314 314 315 314 316 320 324 326 326 324 321 321 322 323 324 326 323 322 323 322 320 320 321 322 321 318 319 320 322 318 317 317 312 311 310 307 308 314 314 320 323 324 324 325 327 328 329 329 328 328 328 329 330 331 331 332 331 331 331
318 319 319 320 321 320 320 319 317 317 319 321 318 318 317 314 314 315 316 315 315 313 313 312 313 318 314 312 312 313 315 317 320 324 326 321 320 322 323 323 324 326 326 324 322 322 321 320 321 321 321 320 317 320 323 322 320 320 317 311 309 307 307 312 314 318 319 323 322 324 330 328 328 325 326 326 327 328 328 329 329 330 330 329 330
319 319 319 320 320 319 318 316 315 316 317 317 318 318 318 315 314 313 311 311 311 310 310 310 311 310 311 311 310 310 311 313 316 319 322 321 320 322 323 325 325 325 325 324 323 322 321 321 321 320 319 318 320 320 319 321 321 321 319 317 316 312 311 314 314 310 316 318 318 322 324 327 326 326 325 326 327 328 329 330 331 331 330 329 329
318 318 318 318 318 319 317 316 316 316 316 316 317 318 315 315 314 313 312 312 311 309 307 309 310 310 310 309 308 309 310 311 313 314 316 318 316 320 323 324 324 324 324 323 323 322 322 322 321 321 320 320 321 318 319 319 321 321 321 321 320 316 316 314 311 308 313 316 317 318 318 319 322 321 321 321 323 325 326 328 330 330 328 328 329
318 318 317 317 317 317 316 315 315 316 315 316 316 317 315 313 312 311 313 311 311 310 309 310 310 311 308 308 308 308 309 311 312 313 315 317 317 318 319 319 319 319 322 320 320 319 319 319 319 318 318 319 320 320 319 321 317 318 320 319 319 318 318 315 313 313 310 311 312 315 316 313 313 313 314 315 318 323 323 322 320 318 319 320 323
320 320 319 316 316 316 316 315 315 315 314 315 316 315 317 314 313 312 311 310 311 311 312 312 310 309 307 306 307 308 309 309 310 312 313 316 319 316 316 316 317 318 318 315 315 315 316 317 316 317 316 316 318 320 321 319 317 318 320 319 319 316 313 313 314 313 310 307 308 307 308 311 310 310 310 311 313 314 314 314 314 311 313 314 316
318 319 317 317 316 316 316 315 314 313 313 314 315 313 314 314 312 311 311 312 313 310 309 308 307 306 306 305 306 307 307 309 309 310 312 313 315 316 314 315 314 316 316 312 312 312 312 312 312 313 313 314 314 318 320 318 318 319 321 320 317 313 310 310 312 311 308 310 309 304 306 305 304 307 309 309 309 310 310 311 311 310 311 311 312
317 319 318 316 316 316 315 315 313 313 312 312 313 312 313 313 312 312 312 312 311 310 309 306 306 306 306 305 305 306 307 307 309 310 310 312 313 316 313 313 315 317 313 311 311 310 310 310 309 309 309 310 311 312 313 314 315 316 315 317 316 311 309 308 307 308 307 305 304 303 304 304 305 306 308 309 309 308 308 309 309 309 310 310 311
Wind_Speed
10 12 10 14 14 15 16 15 15 15 16 16 14 15 16 16 16 17 18 18 19 21 21 22 21 21 20 20 20 19 17 17 17 17 17 17 17 17 16 16 16 15 15 15 15 14 14 14 14 14 13 13 14 14 15 15 14 14 13 13 14 14 14 13 15 16 16 16 16 15 15 15 15 16 16 16 16 15 15 15 12 9 7 12 15
11 10 9 11 14 15 17 16 16 16 17 17 16 15 14 16 17 17 17 18 18 19 19 19 20 20 21 19 18 17 17 16 17 17 17 17 17 17 16 17 17 16 16 15 14 14 13 13 13 13 12 13 14 14 14 15 15 15 14 14 14 14 14 14 14 15 15 15 15 15 16 16 15 16 16 15 16 16 15 14 13 5 6 15 16
9 9 8 11 15 15 16 16 17 17 16 16 17 16 14 15 16 16 16 17 17 18 18 18 18 19 18 18 17 16 16 16 17 17 17 17 17 17 17 17 16 16 16 15 15 14 14 13 13 13 13 13 13 14 14 15 15 14 14 13 13 12 13 13 13 13 13 14 15 15 16 15 14 15 15 15 15 15 14 14 12 10 10 15 15
13 10 9 13 17 16 17 16 16 17 16 15 16 16 15 14 15 16 16 16 16 17 17 17 17 17 17 17 17 17 17 17 17 17 17 17 16 17 17 16 16 16 16 15 15 14 14 13 13 13 13 13 13 14 14 15 15 13 13 12 12 13 12 11 11 12 12 13 12 8 4 6 10 15 15 15 15 15 14 14 13 14 15 14 15
13 11 9 9 10 14 17 17 16 16 15 14 14 16 16 15 15 15 16 14 16 16 17 16 17 17 17 17 18 18 17 16 16 17 16 16 16 17 17 17 17 17 17 16 16 15 13 13 13 13 13 13 13 14 14 15 14 12 13 12 12 11 12 11 11 12 13 12 10 6 5 5 6 15 15 15 15 15 14 14 14 14 13 15 15
9 9 9 10 10 12 17 17 17 17 15 15 14 15 16 16 15 15 15 15 16 16 16 17 17 16 17 17 17 17 16 16 16 16 15 14 13 16 16 16 17 17 16 16 15 14 13 13 13 13 14 13 13 14 14 15 12 11 11 11 11 11 10 10 10 11 10 10 8 4 5 5 5 9 15 13 14 14 14 14 14 13 13 14 14
10 8 8 9 9 12 19 19 19 18 17 16 15 15 16 15 15 14 14 14 14 15 15 15 15 15 16 16 16 16 15 15 15 15 15 15 14 14 16 16 16 15 14 14 15 15 14 13 13 13 13 14 14 14 14 14 13 10 11 12 12 11 9 9 9 9 9 6 4 4 4 5 5 6 13 14 14 13 13 13 14 14 14 13 14
8 7 6 7 6 12 17 18 19 19 19 17 15 15 15 16 16 15 15 15 13 13 14 14 14 15 15 15 15 15 15 14 15 15 14 14 13 14 14 15 14 14 14 14 14 14 14 15 13 12 14 14 14 14 14 12 11 10 9 11 12 10 9 8 9 9 8 4 4 4 4 3 6 5 12 13 12 12 13 12 12 13 13 13 13
8 7 7 8 9 15 14 15 17 19 18 18 17 16 15 16 16 15 14 14 14 13 13 13 14 14 15 15 15 14 14 14 14 14 13 13 12 10 7 10 16 15 15 15 14 15 14 13 14 12 13 13 14 14 13 12 10 8 5 3 2 5 6 8 8 7 4 3 4 3 4 4 4 6 12 13 13 12 12 10 11 13 13 12 13
6 5 5 5 8 13 12 14 15 18 19 19 18 17 16 15 15 15 14 15 14 13 13 13 14 14 14 14 14 14 14 15 13 13 12 11 9 10 12 15 16 16 14 14 13 13 13 13 13 12 12 13 13 12 11 10 9 8 5 1 1 3 3 2 6 5 4 3 3 3 4 6 6 5 10 11 12 13 11 10 7 9 11 13 14
7 6 5 6 8 12 12 12 11 13 16 18 20 19 16 15 15 14 14 14 14 13 12 12 13 14 14 14 13 13 13 13 12 12 11 10 10 10 13 16 16 14 14 13 13 12 12 12 13 13 12 12 11 10 10 9 7 7 5 2 3 3 2 0 5 4 3 3 3 4 6 9 5 4 11 14 13 11 12 11 11 12 12 13 13
9 7 6 6 13 12 11 11 11 10 12 14 17 19 17 16 14 13 13 13 13 12 12 11 11 13 14 13 13 13 13 12 12 11 11 10 10 11 13 14 14 13 13 13 13 12 11 11 12 12 12 11 11 10 10 9 7 6 5 2 4 4 4 2 4 4 4 3 3 3 5 5 4 7 13 13 13 13 11 11 11 11 13 13 12
9 8 7 8 7 12 11 12 11 10 11 13 15 16 15 15 14 13 12 11 12 12 11 11 10 10 12 13 13 13 13 12 11 11 11 10 10 11 12 13 13 13 13 13 13 12 10 9 11 11 11 11 11 11 10 9 7 6 4 2 3 1 3 5 4 5 4 3 3 4 4 3 4 11 11 12 12 12 11 11 10 12 12 12 12
11 9 8 7 6 14 15 12 10 9 9 11 13 13 14 13 13 12 11 11 11 11 10 10 9 11 11 12 12 12 12 12 11 11 11 10 10 10 11 12 12 12 13 13 12 11 10 8 9 10 11 11 10 10 9 9 7 6 4 4 4 4 6 5 5 5 5 4 3 4 3 2 4 10 10 11 11 11 11 11 12 12 12 11 11
10 11 9 7 4 3 15 13 9 7 9 9 12 12 12 12 12 12 11 12 11 10 10 10 10 11 12 12 12 12 12 12 12 12 11 10 10 10 10 11 11 11 11 11 11 10 9 9 9 10 10 9 9 8 9 9 8 6 4 4 5 5 7 4 4 5 5 4 3 4 3 3 6 8 10 10 11 11 11 10 11 11 12 11 11
9 11 11 11 10 7 8 14 15 8 6 10 11 13 12 12 12 12 10 11 10 10 9 9 9 10 10 10 10 11 11 12 11 11 10 10 9 10 10 11 11 11 11 10 10 9 9 9 10 10 9 8 8 8 9 9 8 6 3 4 4 6 7 4 4 4 4 4 4 4 4 3 7 8 10 11 11 11 10 10 11 11 11 11 11
8 7 9 11 11 9 10 12 13 17 11 7 10 11 13 13 12 12 11 11 11 11 9 8 8 9 9 9 9 9 10 11 11 11 10 10 10 10 10 10 9 9 10 10 9 9 8 8 9 9 8 8 8 8 8 8 7 6 3 4 4 6 7 6 4 4 4 4 3 3 3 3 7 8 10 11 11 11 11 10 10 10 11 11 10
6 6 8 8 9 8 9 10 14 13 11 12 13 13 13 13 12 13 11 11 10 10 9 8 8 8 9 9 9 9 10 11 11 10 10 9 9 10 10 10 9 9 9 9 8 8 7 7 7 8 8 8 8 8 8 8 6 5 3 3 4 8 8 6 4 3 4 3 3 2 2 2 5 8 10 10 10 11 11 10 9 10 10 10 11
3 3 4 5 7 7 5 4 8 8 10 9 8 11 14 13 12 12 11 10 10 10 10 9 9 8 8 9 9 10 10 10 10 10 9 10 10 9 9 9 9 8 8 8 8 7 7 6 6 7 7 7 8 8 8 8 7 6 4 4 3 8 10 5 4 4 3 3 3 2 2 2 4 9 10 10 10 11 10 10 8 9 9 10 10
2 2 3 2 4 6 6 6 5 5 5 5 6 8 12 14 13 12 12 12 11 11 9 8 10 9 9 9 10 7 8 7 10 8 9 9 8 6 9 9 9 8 8 8 7 7 6 5 5 6 7 7 8 8 8 8 7 6 4 4 4 10 6 4 4 4 3 3 2 2 1 2 5 8 9 10 10 10 10 10 9 8 8 9 8
2 2 2 4 5 6 6 5 6 7 6 6 5 5 8 12 10 12 12 11 11 11 10 9 9 8 8 7 6 4 4 3 5 4 8 4 6 8 8 9 8 7 7 7 6 6 5 5 5 5 6 6 7 7 7 8 8 6 5 5 5 5 5 5 4 3 3 3 3 2 2 4 6 7 8 9 9 9 9 8 8 7 7 7 8
5 4 2 3 5 6 6 7 6 7 7 6 5 6 7 9 6 6 6 8 9 9 7 4 7 3 8 6 4 4 4 4 3 6 3 3 5 7 8 7 7 7 6 6 5 4 4 4 4 4 5 5 6 4 4 6 7 6 5 6 4 4 4 5 4 4 3 3 3 2 3 6 6 7 8 8 9 9 8 8 7 8 7 7 7
6 5 4 3 4 5 5 6 7 6 6 5 4 4 5 5 5 5 6 8 7 7 3 4 3 4 4 4 4 4 4 4 3 4 4 5 4 7 6 6 6 6 6 5 5 3 3 3 3 4 5 4 3 3 4 4 4 5 5 4 4 4 4 5 4 4 4 3 3 4 4 6 7 7 7 8 8 8 8 7 7 7 7 7 6
7 6 7 4 5 5 5 6 6 6 6 5 4 4 4 4 4 4 5 4 4 5 4 4 4 4 4 4 4 4 4 3 5 6 5 3 2 5 6 5 5 4 4 3 3 3 3 2 2 4 3 2 2 2 4 4 4 3 3 4 4 5 5 4 4 4 4 4 4 5 6 6 6 7 7 7 8 8 7 7 6 6 8 6 6
6 5 5 5 6 6 5 5 6 5 5 5 5 5 5 4 4 4 4 4 4 4 4 4 4 5 5 4 4 3 4 4 3 4 3 3 3 2 2 2 2 1 3 2 2 2 2 2 3 3 2 2 3 3 3 4 3 3 3 3 3 4 4 4 4 4 4 3 3 5 6 5 5 6 7 7 7 7 7 7 6 6 6 6 7
4 5 6 5 5 5 5 5 6 5 5 5 5 6 7 4 4 4 4 3 4 4 4 4 4 4 4 4 4 5 4 4 4 4 4 4 3 3 2 2 2 1 2 2 1 1 1 2 3 2 2 2 2 2 3 2 3 2 2 2 3 4 4 3 3 3 3 2 3 6 4 5 4 6 7 7 7 6 6 6 6 6 5 4 7
4 3 2 2 3 3 5 6 4 5 5 5 5 4 5 4 3 4 4 4 4 5 4 4 4 5 5 4 5 5 4 4 4 4 4 3 3 3 2 2 2 1 1 1 0 2 3 3 3 2 2 2 3 3 3 3 2 2 2 1 2 3 4 4 3 3 2 3 2 5 4 4 3 5 5 5 6 6 6 6 6 6 5 4 5
3 2 1 1 2 3 5 7 5 5 5 6 5 5 5 4 4 6 5 5 5 5 5 4 4 4 4 5 5 5 5 5 4 4 4 3 3 2 2 2 2 1 1 2 2 2 2 2 3 3 3 3 4 4 4 4 4 2 1 1 0 3 4 4 4 3 3 1 1 3 4 3 3 4 5 4 5 5 5 6 6 6 6 4 4
4 2 3 3 2 3 5 5 6 5 4 6 5 4 5 4 5 5 5 7 5 5 5 4 5 4 3 5 5 5 5 5 5 5 4 4 3 2 2 2 2 2 2 2 3 3 3 3 4 4 3 3 4 4 4 4 3 1 2 1 2 2 3 3 4 3 2 2 2 3 6 4 4 3 4 4 4 5 5 4 5 6 5 5 4
5 5 4 2 2 3 6 6 6 5 5 6 5 5 7 7 5 5 5 6 4 4 4 4 4 5 4 5 4 5 5 5 4 4 5 4 3 3 2 2 2 4 3 3 2 3 3 3 3 3 3 3 4 3 4 4 3 1 1 2 3 3 3 3 3 3 3 2 2 1 4 4 4 3 2 3 4 4 3 3 4 4 5 6 5
8 7 4 3 2 4 5 6 6 6 5 6 6 7 8 7 6 5 5 4 4 4 4 4 4 3 4 4 5 3 4 5 3 3 3 4 3 3 2 2 3 2 3 3 3 3 3 2 0 2 3 2 2 2 3 3 3 3 2 2 2 2 3 3 3 3 3 3 1 1 2 3 4 3 2 3 3 4 3 3 4 5 4 6 6
6 8 6 3 2 4 8 6 6 6 6 6 6 6 7 6 6 4 5 3 4 3 4 4 5 1 2 6 4 1 3 3 4 4 4 1 4 3 2 3 2 1 2 3 3 3 3 1 1 2 3 2 1 3 3 3 4 4 3 3 2 3 3 3 3 3 3 3 3 1 1 1 3 4 3 3 3 3 4 3 4 4 4 5 6
4 5 6 4 3 2 6 5 5 5 6 6 6 5 4 4 4 4 4 3 4 4 4 4 4 3 2 6 3 2 5 3 3 2 4 2 2 3 3 3 2 2 2 4 4 3 3 2 3 1 1 2 1 3 3 4 4 4 3 3 3 3 3 3 3 3 3 3 3 3 2 1 2 2 3 3 2 2 3 3 4 4 4 4 5
6 6 7 6 4 5 2 3 5 6 6 4 3 4 3 3 3 3 3 3 2 3 3 5 4 3 4 6 2 3 5 5 5 5 5 4 3 6 2 1 0 1 2 3 3 3 4 3 2 2 2 3 3 3 3 3 3 3 4 3 3 2 3 3 3 3 3 3 3 3 3 2 2 2 3 2 2 2 2 2 4 4 3 3 4
6 5 7 7 4 5 6 3 6 5 4 3 4 3 3 3 3 3 3 3 2 4 4 3 2 3 3 7 6 4 5 3 3 3 2 1 4 4 4 3 3 2 2 1 3 3 4 3 3 4 3 4 4 3 4 4 3 4 3 3 3 3 3 3 3 3 3 3 3 2 2 2 3 3 2 2 1 1 2 2 3 4 4 4 3
5 3 4 4 3 4 7 7 6 6 4 4 3 4 3 3 3 4 3 3 3 4 4 3 5 3 4 5 5 3 4 4 4 3 3 2 3 4 2 3 5 4 3 2 3 4 3 4 3 4 4 4 5 4 4 5 3 4 3 4 3 3 3 3 3 3 3 3 2 2 1 0 1 1 1 0 1 1 1 1 2 3 3 5 5
11 11 8 6 5 4 4 6 6 6 5 4 4 3 4 4 4 4 3 4 3 3 3 4 5 5 3 5 6 5 4 4 4 4 4 4 3 4 4 4 4 5 4 2 3 3 3 4 3 3 3 4 5 6 5 5 4 4 3 4 4 3 4 3 2 3 3 4 3 2 2 1 0 1 0 0 1 1 1 1 1 1 2 3 5
6 9 11 13 12 8 7 5 4 5 5 5 4 4 4 5 4 4 4 4 4 3 3 3 4 4 4 5 5 5 4 4 4 4 4 4 4 4 4 4 3 4 4 3 3 3 3 3 3 3 3 4 5 6 6 5 5 4 4 4 4 4 3 3 3 3 3 4 3 4 3 3 3 3 2 2 2 2 2 2 3 3 3 3 4
3 3 3 1 4 5 4 4 5 5 5 5 5 5 5 5 4 4 4 4 3 3 3 4 3 2 3 5 5 4 4 3 3 3 4 3 4 3 3 2 2 3 5 4 3 3 3 3 4 3 3 3 4 5 6 6 5 4 5 4 4 4 3 3 3 4 4 3 3 2 2 2 2 2 1 1 2 3 3 3 3 2 3 5 5
3 4 5 4 4 5 4 4 5 6 6 5 5 5 4 4 4 3 4 3 3 3 3 3 3 3 3 4 4 4 4 3 3 2 3 3 2 2 3 3 2 3 4 5 3 3 4 5 5 5 4 3 3 4 5 6 7 7 6 6 4 4 4 4 4 4 3 3 2 2 3 2 3 3 1 1 2 3 3 3 2 2 2 3 6
5 5 5 5 6 7 7 6 5 6 7 7 5 5 5 3 3 2 3 1 2 2 3 2 3 3 3 4 3 3 3 1 1 2 2 2 3 2 3 2 2 2 3 4 4 4 3 4 4 3 4 3 2 2 2 4 8 6 5 6 6 5 4 5 5 4 4 3 2 2 1 1 1 3 3 2 1 4 4 2 1 1 2 2 3
5 6 7 7 6 6 7 6 5 5 6 7 6 4 3 4 4 4 3 2 3 4 2 2 2 3 2 2 2 2 2 2 2 3 3 4 4 3 2 2 2 1 2 3 3 3 4 4 4 3 3 4 3 4 3 1 3 4 5 4 3 4 5 5 5 5 4 4 3 2 3 2 2 2 3 2 3 4 4 2 1 3 1 2 3
6 7 6 7 6 6 6 6 5 5 5 6 6 5 2 3 3 4 5 3 1 1 3 2 3 5 4 3 3 2 3 3 3 3 3 3 3 3 3 3 2 3 2 2 2 2 3 4 4 5 3 3 3 1 3 1 4 3 5 5 1 2 2 4 2 4 4 4 3 3 3 4 4 3 1 2 0 0 0 0 2 4 2 2 2
4 4 5 8 7 7 5 6 6 5 6 6 6 4 5 5 6 6 4 3 4 3 4 4 4 5 5 4 4 3 2 3 3 4 2 3 4 4 4 3 4 3 3 4 3 2 3 4 3 2 4 3 3 3 4 3 3 8 3 2 4 3 2 1 2 2 2 2 4 3 3 3 4 4 3 4 3 3 3 2 2 2 3 3 2
5 6 6 6 6 7 7 8 7 7 6 7 7 7 8 7 6 6 5 5 4 4 5 5 3 3 3 5 3 3 3 3 2 3 3 5 4 3 3 2 2 3 3 3 2 2 2 2 3 4 3 4 3 2 0 3 2 1 6 5 2 2 2 2 1 2 3 2 5 4 4 5 5 4 4 4 3 3 4 4 4 3 3 2 2
5 4 4 5 6 6 6 6 6 6 7 7 8 7 7 8 7 6 5 5 4 3 3 3 3 3 3 0 3 4 4 3 2 2 2 4 5 4 4 4 2 2 2 2 3 3 2 2 2 3 4 2 2 2 1 2 2 4 4 2 2 3 5 3 2 2 1 1 2 3 5 5 4 4 3 4 5 5 5 5 5 5 4 3 2
4 3 4 4 4 5 6 6 7 6 6 7 6 7 6 6 6 6 5 6 6 0 0 0 3 2 3 5 4 4 5 4 3 3 3 3 4 4 5 4 3 2 3 2 2 3 3 3 3 4 3 4 5 3 3 2 3 6 5 6 6 4 4 5 2 3 4 3 4 4 6 5 5 6 6 5 4 4 4 3 5 5 5 5 4
4 4 4 4 4 4 5 5 4 5 5 6 6 7 8 6 6 5 5 5 3 3 2 3 2 3 6 5 5 5 5 5 4 4 4 3 4 5 4 4 4 3 4 4 4 3 3 2 3 4 4 5 5 6 5 2 3 2 3 5 5 5 5 5 4 3 4 6 3 3 2 5 7 8 7 7 7 6 7 7 7 7 7 8 7
5 6 5 3 3 4 5 5 6 6 6 6 7 5 7 7 7 7 6 3 3 3 1 2 4 3 6 4 5 5 5 5 5 5 3 4 4 5 5 5 4 3 2 4 3 3 4 4 4 4 4 3 4 5 5 3 3 3 3 4 5 4 4 4 3 4 4 4 2 3 3 3 7 8 7 7 7 7 7 7 7 7 7 8 8
2 2 3 4 4 5 6 7 7 6 5 5 6 6 6 7 8 7 8 5 4 3 2 3 3 3 6 4 4 5 5 5 5 5 4 4 4 4 5 5 5 4 3 4 4 5 4 4 4 4 4 5 4 4 5 3 3 2 2 3 2 2 4 4 5 4 6 4 5 3 2 5 7 5 6 8 8 7 7 6 7 7 6 5 5
3 4 4 5 5 6 7 7 5 3 4 5 7 9 7 8 8 8 9 9 6 5 4 2 3 4 5 3 4 4 4 4 4 4 4 3 4 3 4 4 4 4 5 5 4 5 4 5 5 6 5 6 5 6 6 4 4 4 3 2 3 3 2 3 3 4 4 4 5 4 3 1 5 7 5 5 6 6 6 7 7 7 6 6 6
Wind_Direction
163 148 146 138 135 129 124 119 118 115 117 116 114 114 114 115 116 115 117 117 117 116 117 120 118 118 118 120 120 117 116 117 117 117 115 114 112 112 111 110 110 111 114 117 118 118 117 115 112 109 109 110 112 113 115 114 114 110 103 101 98 102 102 98 95 101 100 96 96 94 99 101 94 89 89 92 91 88 84 81 67 66 70 76 73
154 146 140 134 131 129 127 123 123 121 120 118 119 120 119 120 120 118 117 116 115 115 115 115 116 118 119 119 118 116 116 117 119 118 119 118 116 116 115 113 110 109 114 116 114 113 113 112 112 113 113 112 113 112 112 110 107 102 100 92 96 105 103 97 99 93 94 97 100 102 101 100 98 99 97 94 93 89 87 83 77 70 85 81 76
132 135 134 131 130 128 124 124 124 125 122 124 128 126 125 121 123 121 119 118 117 117 117 118 118 118 118 118 119 119 120 120 120 121 122 121 119 118 117 115 113 112 110 110 108 108 106 108 109 111 112 112 113 113 114 112 109 107 100 99 103 102 98 101 101 105 106 105 101 101 100 100 103 101 100 95 92 92 89 87 84 76 75 73 70
137 140 144 142 137 132 129 125 122 124 127 128 128 127 126 123 121 121 119 119 117 118 118 119 119 120 122 125 125 126 126 125 125 125 124 122 120 119 118 116 114 113 113 112 109 107 109 110 112 114 114 117 117 117 117 113 111 107 104 105 108 106 104 103 99 93 89 85 87 79 62 89 97 97 97 99 98 94 95 95 90 81 80 78 74
145 144 136 131 130 133 129 125 124 127 128 124 124 125 123 122 119 119 120 118 119 120 120 121 123 125 127 128 128 127 127 126 124 123 122 121 121 121 121 119 117 116 117 116 114 112 112 115 117 117 116 117 117 118 115 113 111 108 108 106 104 102 103 103 99 95 90 86 77 70 77 85 96 98 99 97 98 99 99 96 92 90 83 77 74
130 134 138 135 135 136 129 127 127 129 127 127 127 125 122 121 119 117 117 116 117 119 121 123 126 127 127 127 127 126 124 121 118 117 117 117 117 121 120 119 120 122 121 121 117 115 113 112 112 115 115 119 119 121 117 115 113 112 108 107 107 105 100 98 99 96 91 80 63 53 80 98 95 102 101 102 98 93 91 92 92 89 83 78 76
128 135 138 137 139 141 139 136 133 134 134 132 129 126 124 121 120 117 114 115 114 117 120 122 125 125 125 124 124 123 121 120 118 117 118 118 119 120 121 122 119 121 123 122 122 121 119 117 116 117 120 122 122 121 117 119 117 115 112 112 106 97 97 99 98 95 83 70 61 59 68 62 66 99 108 102 97 99 97 89 87 87 85 80 78
112 118 124 127 129 139 138 136 135 135 136 133 130 128 125 122 120 118 119 117 115 117 119 121 122 123 122 122 122 122 122 121 121 121 122 127 130 129 130 126 124 117 116 117 115 111 116 120 117 119 121 123 124 122 121 120 120 114 113 123 108 78 90 100 101 98 82 64 53 51 48 41 91 104 110 108 104 98 98 98 89 85 83 81 78
113 123 130 133 141 141 138 135 134 135 135 133 132 130 125 123 122 122 121 120 122 122 124 125 125 123 123 123 122 122 123 124 124 126 130 132 135 139 117 104 106 113 117 119 118 117 116 114 117 122 125 124 120 113 107 111 115 104 82 99 86 78 91 109 108 95 66 53 55 51 61 60 62 90 106 105 107 104 97 90 97 90 87 85 83
93 84 102 111 134 136 132 134 138 139 138 136 131 128 126 126 125 123 124 124 124 126 126 127 125 125 122 121 122 124 126 126 126 129 130 126 115 105 104 109 116 118 120 117 112 108 109 109 114 119 115 111 105 106 106 102 106 103 108 103 7 72 88 67 117 109 74 67 58 58 77 84 75 70 104 106 105 104 105 96 100 103 98 91 84
103 95 94 112 129 127 130 131 128 132 134 134 131 129 129 128 127 125 124 125 126 126 126 128 128 126 125 124 121 122 122 118 116 115 111 108 104 103 109 117 120 122 122 117 111 107 103 105 112 112 111 107 105 104 100 93 90 88 78 14 351 349 346 41 98 92 92 84 63 14 87 98 102 119 119 116 116 109 106 109 100 94 96 91 84
119 111 110 122 135 118 122 124 123 125 129 129 129 129 130 130 129 127 127 128 127 126 128 130 130 129 127 126 125 122 118 117 114 112 108 106 104 104 108 118 123 122 117 115 111 106 103 104 110 111 110 107 107 105 106 103 96 89 82 330 347 318 286 241 103 100 107 86 52 53 70 97 128 123 121 120 118 115 111 102 103 103 95 90 87
122 116 116 118 125 130 120 123 129 127 131 130 128 126 125 127 128 129 127 126 130 132 133 132 130 128 128 127 127 122 119 118 119 118 114 112 111 107 107 112 115 116 116 114 113 111 108 105 108 111 112 112 108 104 106 105 104 102 97 358 356 347 189 164 113 115 111 93 52 70 75 69 108 120 120 115 117 114 109 105 102 97 95 91 88
121 118 116 115 136 131 127 121 122 131 132 128 125 124 126 126 129 127 127 129 131 131 130 132 130 129 127 127 127 124 123 120 120 119 120 120 114 111 112 114 115 115 114 113 113 114 114 110 103 102 101 101 104 107 105 104 101 93 76 41 40 98 130 132 128 119 121 107 93 82 75 96 125 130 125 124 119 114 116 116 111 104 98 95 93
121 117 116 104 96 123 120 113 100 119 122 122 118 119 127 127 126 128 131 131 131 130 132 132 132 133 131 127 123 123 124 124 124 123 122 122 117 113 111 111 112 111 112 113 113 115 116 112 102 96 95 95 96 104 108 107 102 94 73 51 56 105 116 114 122 124 119 117 115 100 103 135 132 127 127 125 121 119 117 117 110 107 101 99 96
125 134 138 135 141 149 127 125 124 129 131 131 127 128 130 129 130 130 129 128 130 132 132 132 134 132 127 121 121 124 124 124 123 122 124 124 120 115 112 112 112 110 112 114 114 116 119 111 102 96 89 87 90 98 106 107 106 102 86 55 64 115 116 114 118 118 122 128 126 125 137 168 141 136 128 124 123 121 122 119 111 109 109 106 101
142 142 137 143 150 158 150 143 143 147 142 141 131 133 135 137 136 130 130 133 136 136 134 134 131 128 125 124 122 122 123 126 124 124 125 128 127 121 116 113 114 116 115 116 116 118 118 112 105 98 91 87 81 84 94 102 105 103 87 64 84 127 127 122 118 120 123 132 124 125 161 186 149 143 136 133 132 127 125 126 122 117 113 108 107
154 151 143 145 147 156 149 147 151 153 158 154 149 148 146 142 136 133 140 140 138 137 135 135 133 131 128 126 124 123 125 125 125 125 126 126 125 125 122 121 121 120 119 117 118 119 121 114 107 99 90 84 83 79 79 84 90 92 90 78 97 142 142 130 116 115 133 131 107 131 177 188 157 141 137 135 133 130 129 128 127 126 118 113 111
148 146 124 143 147 138 135 130 138 142 145 145 148 154 145 141 133 138 141 140 138 139 141 144 141 134 130 129 129 128 125 124 124 126 124 125 127 122 128 128 128 127 124 124 125 125 126 122 113 97 88 81 77 73 70 69 72 81 80 79 112 151 148 124 121 131 123 107 121 98 179 213 148 147 141 139 137 135 133 127 129 127 122 120 112
111 114 119 97 93 84 80 84 94 97 102 120 133 145 146 145 146 143 148 148 146 146 144 146 146 140 137 136 134 131 127 126 130 127 127 128 124 128 133 133 133 133 134 133 133 132 131 131 114 98 88 80 76 69 58 55 59 72 64 58 131 154 132 131 132 129 115 124 119 123 241 193 165 153 145 143 142 139 136 134 136 132 125 119 119
109 100 96 105 100 97 104 103 117 117 118 123 126 128 149 146 148 147 150 150 148 149 149 151 146 143 141 131 111 94 98 104 112 120 130 116 129 134 137 138 137 139 141 144 139 139 137 126 110 97 86 78 71 64 55 50 53 62 51 49 100 118 134 130 134 116 116 131 129 153 228 178 169 159 149 145 143 138 136 134 133 135 130 123 122
140 129 106 118 121 125 124 123 126 131 136 139 144 145 151 148 139 148 148 155 153 153 149 150 146 131 137 113 99 101 93 98 116 128 111 131 132 139 140 142 145 145 148 145 146 143 139 124 110 101 93 83 74 61 44 41 42 51 53 59 79 123 128 130 124 125 129 140 142 197 218 181 180 161 154 150 142 139 134 143 136 133 131 127 125
154 143 155 150 128 125 126 130 140 144 141 136 136 124 128 121 135 139 149 156 158 146 127 136 91 106 97 103 98 97 103 106 105 129 132 123 139 141 147 150 151 157 151 151 144 152 143 138 124 113 92 81 64 67 64 64 38 34 32 48 81 110 119 123 126 135 152 167 149 200 203 186 186 167 158 155 149 145 147 149 135 133 129 124 124
156 159 160 150 134 135 141 147 150 147 139 131 117 111 117 116 120 122 131 126 121 122 119 119 118 110 110 105 109 110 99 110 144 149 128 102 119 143 151 154 164 161 167 121 129 163 173 172 174 111 99 59 72 58 61 67 58 30 29 39 74 116 125 137 145 152 164 183 177 206 195 192 195 174 164 160 156 156 153 145 148 138 131 140 129
161 147 152 163 155 152 149 149 148 143 132 134 124 114 112 110 111 123 121 119 123 119 124 127 130 123 121 121 121 108 98 81 65 77 85 94 67 53 55 56 55 41 69 72 55 33 45 48 40 54 29 41 26 29 42 53 62 33 35 30 63 119 129 142 157 167 175 184 172 208 195 201 201 185 171 169 162 165 160 151 149 140 128 131 131
152 158 164 163 165 150 144 144 147 136 128 126 116 138 129 134 132 136 124 118 127 133 137 139 132 134 128 127 111 101 95 83 82 104 101 110 103 88 89 76 67 81 58 91 46 40 31 40 46 39 15 17 23 18 27 59 70 43 35 31 58 124 142 150 163 179 175 170 192 206 203 204 214 191 180 177 171 174 168 151 148 133 131 141 132
170 158 142 151 133 121 129 140 127 117 114 113 117 127 135 138 132 133 138 146 147 148 153 149 143 141 135 131 118 112 105 96 103 113 121 118 123 132 140 123 115 106 95 109 23 31 29 28 40 24 2 0 348 348 8 51 77 66 34 36 63 131 150 153 170 185 167 191 205 208 195 204 205 200 187 186 182 181 183 168 150 151 149 166 160
119 108 117 74 96 108 120 147 112 117 114 130 141 139 135 145 158 168 159 174 166 167 164 159 142 137 137 127 124 130 131 120 129 130 139 121 146 158 147 128 132 130 70 47 39 29 37 16 28 9 9 5 351 348 1 29 34 71 48 85 126 142 161 167 174 177 175 132 208 232 194 194 192 215 190 196 191 192 199 187 165 160 152 176 171
129 85 57 50 56 106 128 147 135 131 136 151 155 146 147 148 177 175 164 188 179 174 168 150 136 130 128 133 136 133 130 139 144 145 131 140 151 164 162 162 133 88 66 54 37 30 35 25 15 4 10 353 3 1 1 27 39 112 142 153 217 156 168 170 177 170 150 139 192 249 206 194 185 210 194 198 197 198 213 201 200 171 170 178 178
112 98 100 102 96 129 153 154 152 156 156 159 158 156 167 176 183 181 185 186 184 163 154 146 134 134 142 159 147 131 146 153 127 123 140 146 155 159 172 148 73 56 65 64 75 75 54 33 18 357 346 351 19 356 11 4 357 109 192 161 196 193 159 168 168 172 152 162 191 262 227 186 190 205 230 202 213 201 204 216 224 200 183 182 189
119 107 112 126 149 155 152 163 167 169 161 166 165 170 175 186 184 178 191 186 170 154 150 131 117 131 171 129 84 120 165 91 96 140 125 132 146 152 148 82 75 69 108 116 127 111 114 117 334 272 292 334 40 11 28 350 349 48 56 120 205 147 156 150 167 161 155 159 141 120 304 202 194 207 229 219 237 217 201 220 222 234 203 190 206
121 125 130 151 199 192 172 172 173 169 168 168 172 175 183 186 184 168 192 174 162 156 144 133 105 187 140 80 91 160 63 78 78 42 23 135 163 144 83 80 87 100 116 133 121 118 117 138 238 234 240 215 66 37 34 43 40 20 43 72 129 137 144 149 157 169 157 138 143 115 87 319 206 211 223 215 240 281 247 211 222 230 233 217 219
87 113 130 144 206 206 182 168 168 168 172 176 179 178 174 173 165 174 183 172 169 147 153 121 128 185 82 85 104 70 52 38 84 126 205 213 210 101 79 103 120 155 151 155 138 123 105 85 50 5 118 96 73 34 57 53 49 24 35 48 92 114 127 132 151 160 163 144 145 158 152 116 158 218 209 209 226 272 307 247 228 230 240 246 229
138 152 141 164 183 81 315 185 165 165 184 174 154 156 163 156 147 154 158 135 144 153 137 83 136 147 99 79 95 175 142 148 159 178 198 193 104 78 85 76 126 172 178 167 126 129 109 93 65 87 126 124 122 118 91 67 51 47 47 40 53 78 122 126 153 167 162 149 149 156 178 156 150 179 181 207 207 231 293 301 260 242 244 260 255
144 157 159 169 146 145 165 234 170 171 171 162 159 147 149 143 136 125 116 135 118 79 38 92 77 123 125 123 173 194 101 135 156 202 239 63 98 136 164 164 170 168 140 207 137 114 96 94 108 96 88 107 115 123 117 112 104 77 49 53 64 75 88 121 146 163 156 143 130 163 190 197 189 189 180 171 83 39 354 322 310 275 238 237 260
123 158 153 141 158 157 188 181 168 165 157 159 140 145 138 126 124 125 96 83 71 82 116 139 137 144 124 133 149 188 169 166 151 171 188 131 118 121 102 185 166 148 158 167 113 100 95 94 77 127 117 122 123 105 123 119 113 99 75 70 66 72 89 90 130 158 144 127 134 154 165 33 349 352 280 256 214 112 86 45 319 307 257 226 252
163 164 168 172 175 173 194 166 172 158 144 130 126 119 112 109 91 80 86 84 71 70 70 83 90 122 153 130 145 174 179 159 155 163 156 109 115 121 149 182 178 151 141 140 99 96 88 94 60 56 128 137 127 124 116 124 115 103 94 87 70 76 76 84 91 122 120 130 145 147 152 107 117 236 31 38 313 260 183 213 186 242 283 249 241
195 174 172 178 177 173 169 169 146 144 133 127 124 116 98 86 80 80 77 69 68 70 66 81 94 129 138 136 136 149 167 174 169 155 142 127 128 138 147 174 162 141 132 129 114 92 87 102 88 45 75 127 135 142 138 129 123 113 88 78 60 69 75 93 101 102 113 138 146 160 170 177 169 178 186 172 220 223 246 243 241 224 212 218 235
151 127 112 98 108 112 137 152 143 131 117 113 112 101 94 84 80 86 85 79 77 71 89 76 88 95 105 127 139 148 159 176 179 139 123 123 125 149 145 174 176 151 133 123 134 113 102 89 118 102 63 66 134 144 141 133 117 102 94 68 58 33 16 40 55 73 80 91 108 115 127 157 159 167 142 288 228 215 231 244 251 241 226 215 214
136 139 151 153 129 123 132 129 141 129 120 115 116 109 97 100 103 86 70 61 63 88 68 115 127 99 116 121 146 164 165 178 198 114 106 105 122 173 154 142 181 166 135 129 140 163 139 116 115 122 105 74 63 101 115 109 77 63 37 26 35 38 31 28 41 43 40 42 50 88 109 112 96 90 126 182 295 299 256 242 260 271 280 255 242
154 162 155 163 162 159 152 164 156 144 142 143 145 142 125 97 65 79 117 127 116 85 71 65 97 110 120 135 148 168 167 171 152 106 109 149 128 136 120 140 165 156 140 141 149 149 116 124 116 91 115 91 66 46 49 113 114 76 64 53 15 1 34 34 32 26 29 23 19 57 21 101 134 116 208 153 162 243 258 242 254 310 302 307 308
178 162 169 170 163 158 167 158 151 160 159 156 153 137 151 162 151 159 136 139 138 139 122 75 100 97 92 113 133 166 156 168 179 158 163 149 157 158 136 140 147 81 71 76 116 131 122 121 124 91 53 92 51 355 321 19 65 123 107 6 358 350 39 39 34 27 20 358 13 18 18 40 44 15 357 15 264 245 247 243 186 227 306 335 323
164 169 167 150 155 169 167 153 157 157 155 146 139 141 132 124 120 144 133 106 26 118 112 115 101 95 77 73 84 120 167 184 184 176 176 177 142 125 135 153 158 141 104 96 124 125 124 131 128 138 98 76 112 158 356 318 106 97 121 107 327 13 330 11 4 27 13 4 356 34 17 30 37 51 90 138 160 256 308 167 312 24 11 337 332
157 160 159 162 162 167 158 153 154 155 151 142 129 112 102 101 92 108 101 121 134 103 81 66 68 70 56 58 66 83 130 172 190 169 165 132 133 136 142 149 144 143 135 148 155 151 93 110 104 83 107 92 61 19 338 338 141 136 112 142 170 121 59 327 341 314 332 347 29 11 1 28 28 22 22 38 25 29 35 35 43 47 23 27 19
175 179 173 169 167 169 168 162 157 157 155 139 134 130 116 92 97 87 87 81 58 54 63 44 43 87 86 47 30 47 52 90 147 162 149 127 117 114 117 110 98 129 143 151 150 145 141 87 101 127 112 129 146 155 132 8 27 347 142 122 118 112 194 215 128 42 1 11 23 20 26 14 10 14 14 355 0 10 21 31 31 50 44 34 51
182 187 177 170 160 164 152 145 140 148 145 143 145 142 134 130 122 114 93 78 79 69 93 111 63 50 64 356 49 54 63 72 77 97 91 109 109 117 117 108 79 68 124 127 135 128 130 131 146 128 123 102 145 123 149 44 56 56 68 106 157 171 162 219 110 143 320 58 2 44 38 27 23 12 4 8 8 1 17 18 13 6 3 0 32
192 165 164 171 166 160 154 149 147 144 142 147 150 129 118 126 131 132 133 137 130 269 301 65 112 79 72 60 48 39 47 71 75 75 76 80 101 109 113 112 106 94 114 113 111 128 143 148 141 136 148 148 153 136 166 192 79 53 56 56 61 62 110 134 177 98 94 359 23 52 35 27 37 26 15 12 5 16 18 26 23 12 3 355 353
168 157 164 159 159 145 127 119 118 139 154 151 150 144 133 129 115 108 110 115 127 152 148 114 79 93 70 46 50 40 39 50 66 72 78 88 104 104 106 113 112 124 133 139 144 137 109 87 109 116 132 147 155 144 160 162 117 91 52 62 63 65 66 75 91 157 142 127 57 356 35 42 49 39 30 31 37 41 50 40 42 38 31 22 14
168 178 172 138 108 108 114 122 148 159 163 160 145 143 136 134 122 113 93 65 105 104 103 66 95 73 80 40 53 49 44 39 53 64 71 100 110 123 124 123 122 125 104 95 72 75 110 122 116 101 114 97 120 140 136 135 102 124 114 64 63 55 57 64 78 67 111 111 47 69 21 322 50 38 27 46 55 57 54 47 42 37 32 23 19
134 107 93 103 124 140 150 158 171 166 157 145 131 118 110 111 113 123 124 120 104 69 52 74 71 64 84 51 53 57 48 48 40 50 63 68 104 114 119 121 120 114 95 96 90 77 65 72 74 96 94 87 55 97 108 105 94 110 80 128 94 35 41 39 36 62 52 51 126 112 63 64 69 19 25 40 43 45 47 42 45 37 32 25 18
108 120 128 142 156 164 166 170 160 113 113 138 140 134 133 137 138 143 140 140 140 130 107 67 63 64 83 55 58 63 63 66 59 62 66 73 89 85 96 100 91 93 98 104 105 105 88 90 86 80 75 93 93 92 90 88 109 93 75 100 130 135 150 119 114 66 107 112 81 61 53 48 105 95 36 30 43 44 46 47 41 36 26 22 17